• In Kazakhstan
  • List of Countries
  • For 7 days
  • Water Temperature
  • Satellite Maps
  • Weather Map
  • News
  • Weather Widgets
  • user-avatar
    Login

    Hourly Weather San Diego

    Today, 24 November, Friday

    Time Temperature Precipitation Wind Pressure Humidity
    00:00 +23°C° 0 mm 1 mps 757 mmHg 42%
    01:00 +23°C° 0 mm 1 mps 757 mmHg 43%
    02:00 +23°C° 0 mm 1 mps 757 mmHg 44%
    03:00 +23°C° 0 mm 1 mps 757 mmHg 45%
    04:00 +22°C° 0 mm 1 mps 757 mmHg 46%
    05:00 +22°C° 0 mm 1 mps 757 mmHg 44%
    06:00 +22°C° 0 mm 1 mps 757 mmHg 42%
    07:00 +23°C° 0 mm 1 mps 757 mmHg 39%
    08:00 +25°C° 0 mm 1 mps 757 mmHg 34%
    09:00 +28°C° 0 mm 1 mps 757 mmHg 29%
    10:00 +30°C° 0 mm 1 mps 757 mmHg 24%
    11:00 +31°C° 0 mm 1 mps 757 mmHg 24%
    12:00 +31°C° 0 mm 2 mps 756 mmHg 24%
    13:00 +32°C° 0 mm 2 mps 756 mmHg 23%
    14:00 +31°C° 0 mm 2 mps 756 mmHg 27%
    15:00 +30°C° 0 mm 2 mps 756 mmHg 31%
    16:00 +29°C° 0 mm 1 mps 755 mmHg 35%
    17:00 +27°C° 0 mm 1 mps 756 mmHg 37%
    18:00 +26°C° 0 mm 1 mps 756 mmHg 40%
    19:00 +24°C° 0 mm 1 mps 756 mmHg 43%
    20:00 +24°C° 0 mm 1 mps 757 mmHg 43%
    21:00 +23°C° 0 mm 1 mps 757 mmHg 43%
    22:00 +23°C° 0 mm 1 mps 757 mmHg 43%
    23:00 +23°C° 0 mm 1 mps 757 mmHg 43%

    Tomorrow, 25 November, Saturday

    Time Temperature Precipitation Wind Pressure Humidity
    00:00 +23°C° 0 mm 1 mps 757 mmHg 43%
    01:00 +22°C° 0 mm 1 mps 757 mmHg 43%
    02:00 +22°C° 0 mm 1 mps 757 mmHg 43%
    03:00 +22°C° 0 mm 1 mps 757 mmHg 44%
    04:00 +21°C° 0 mm 2 mps 757 mmHg 44%
    05:00 +21°C° 0 mm 2 mps 758 mmHg 41%
    06:00 +21°C° 0 mm 2 mps 758 mmHg 38%
    07:00 +21°C° 0 mm 2 mps 758 mmHg 35%
    08:00 +25°C° 0 mm 2 mps 759 mmHg 31%
    09:00 +27°C° 0 mm 2 mps 759 mmHg 27%
    10:00 +30°C° 0 mm 2 mps 760 mmHg 23%
    11:00 +30°C° 0 mm 2 mps 759 mmHg 25%
    12:00 +31°C° 0 mm 2 mps 759 mmHg 26%
    13:00 +31°C° 0 mm 2 mps 759 mmHg 27%
    14:00 +30°C° 0 mm 2 mps 759 mmHg 31%
    15:00 +29°C° 0 mm 2 mps 759 mmHg 35%
    16:00 +28°C° 0 mm 1 mps 759 mmHg 40%
    17:00 +26°C° 0 mm 1 mps 759 mmHg 45%
    18:00 +24°C° 0 mm 1 mps 759 mmHg 50%
    19:00 +23°C° 0 mm 1 mps 760 mmHg 56%
    20:00 +23°C° 0 mm 1 mps 760 mmHg 54%
    21:00 +22°C° 0 mm 1 mps 760 mmHg 51%
    22:00 +22°C° 0 mm 1 mps 761 mmHg 49%
    23:00 +22°C° 0 mm 1 mps 761 mmHg 48%

    Day after tomorrow, 26 November, Sunday

    Time Temperature Precipitation Wind Pressure Humidity
    00:00 +22°C° 0 mm 1 mps 760 mmHg 47%
    01:00 +21°C° 0 mm 1 mps 760 mmHg 45%
    02:00 +21°C° 0 mm 1 mps 760 mmHg 46%
    03:00 +21°C° 0 mm 1 mps 760 mmHg 46%
    04:00 +20°C° 0 mm 1 mps 760 mmHg 47%
    05:00 +21°C° 0 mm 1 mps 760 mmHg 43%
    06:00 +21°C° 0 mm 1 mps 760 mmHg 38%
    07:00 +21°C° 0 mm 1 mps 761 mmHg 34%
    08:00 +23°C° 0 mm 1 mps 761 mmHg 32%
    09:00 +26°C° 0 mm 1 mps 761 mmHg 30%
    10:00 +28°C° 0 mm 1 mps 761 mmHg 28%
    11:00 +29°C° 0 mm 2 mps 760 mmHg 26%
    12:00 +30°C° 0 mm 3 mps 759 mmHg 24%
    13:00 +32°C° 0 mm 4 mps 759 mmHg 22%
    14:00 +29°C° 0 mm 3 mps 759 mmHg 28%
    15:00 +28°C° 0 mm 3 mps 758 mmHg 33%
    16:00 +26°C° 0 mm 2 mps 758 mmHg 39%
    17:00 +25°C° 0 mm 2 mps 758 mmHg 45%
    18:00 +23°C° 0 mm 2 mps 759 mmHg 50%
    19:00 +20°C° 0 mm 2 mps 759 mmHg 56%
    20:00 +20°C° 0 mm 2 mps 759 mmHg 57%
    21:00 +20°C° 0 mm 2 mps 759 mmHg 58%
    22:00 +19°C° 0 mm 2 mps 759 mmHg 58%
    23:00 +19°C° 0 mm 3 mps 759 mmHg 62%

    27 November, Monday

    Time Temperature Precipitation Wind Pressure Humidity
    00:00 +18°C° 0 mm 3 mps 759 mmHg 65%
    01:00 +18°C° 0 mm 4 mps 758 mmHg 68%
    02:00 +17°C° 0 mm 3 mps 758 mmHg 73%
    03:00 +17°C° 0 mm 3 mps 758 mmHg 78%
    04:00 +16°C° 0 mm 3 mps 758 mmHg 82%
    05:00 +17°C° 0.1 mm 4 mps 759 mmHg 83%
    06:00 +16°C° 0.1 mm 5 mps 759 mmHg 84%
    07:00 +17°C° 0.1 mm 5 mps 759 mmHg 85%
    08:00 +17°C° 0.1 mm 6 mps 759 mmHg 81%
    09:00 +17°C° 0.1 mm 7 mps 759 mmHg 77%
    10:00 +17°C° 0.1 mm 8 mps 760 mmHg 73%
    11:00 +18°C° 0 mm 8 mps 759 mmHg 67%
    12:00 +18°C° 0 mm 8 mps 758 mmHg 61%
    13:00 +20°C° 0 mm 8 mps 758 mmHg 55%
    14:00 +18°C° 0 mm 7 mps 758 mmHg 55%
    15:00 +17°C° 0 mm 6 mps 758 mmHg 56%
    16:00 +17°C° 0 mm 5 mps 758 mmHg 56%
    17:00 +17°C° 0 mm 4 mps 758 mmHg 60%
    18:00 +16°C° 0 mm 3 mps 759 mmHg 63%
    19:00 +15°C° 0 mm 2 mps 759 mmHg 66%
    20:00 +15°C° 0 mm 2 mps 760 mmHg 64%
    21:00 +15°C° 0 mm 2 mps 760 mmHg 61%
    22:00 +15°C° 0 mm 2 mps 760 mmHg 58%
    23:00 +15°C° 0 mm 2 mps 760 mmHg 54%

    28 November, Tuesday

    Time Temperature Precipitation Wind Pressure Humidity
    00:00 +15°C° 0 mm 2 mps 759 mmHg 50%
    01:00 +15°C° 0 mm 2 mps 759 mmHg 47%
    02:00 +14°C° 0 mm 3 mps 759 mmHg 44%
    03:00 +14°C° 0 mm 3 mps 760 mmHg 40%
    04:00 +14°C° 0 mm 3 mps 760 mmHg 37%
    05:00 +16°C° 0 mm 3 mps 760 mmHg 35%
    06:00 +16°C° 0 mm 3 mps 760 mmHg 32%
    07:00 +16°C° 0 mm 3 mps 761 mmHg 30%
    08:00 +19°C° 0 mm 2 mps 761 mmHg 26%
    09:00 +21°C° 0 mm 2 mps 761 mmHg 22%
    10:00 +25°C° 0 mm 2 mps 761 mmHg 18%
    11:00 +26°C° 0 mm 2 mps 760 mmHg 17%
    12:00 +26°C° 0 mm 3 mps 760 mmHg 16%
    13:00 +27°C° 0 mm 3 mps 759 mmHg 15%
    14:00 +26°C° 0 mm 3 mps 759 mmHg 19%
    15:00 +25°C° 0 mm 3 mps 759 mmHg 22%
    16:00 +24°C° 0 mm 3 mps 759 mmHg 25%
    17:00 +22°C° 0 mm 3 mps 759 mmHg 25%
    18:00 +20°C° 0 mm 3 mps 759 mmHg 24%
    19:00 +19°C° 0 mm 3 mps 760 mmHg 24%
    20:00 +19°C° 0 mm 3 mps 760 mmHg 22%
    21:00 +19°C° 0 mm 3 mps 760 mmHg 20%
    22:00 +18°C° 0 mm 2 mps 760 mmHg 18%
    23:00 +18°C° 0 mm 2 mps 760 mmHg 18%

    29 November, Wednesday

    Time Temperature Precipitation Wind Pressure Humidity
    00:00 +18°C° 0 mm 2 mps 759 mmHg 17%
    01:00 +18°C° 0 mm 2 mps 759 mmHg 17%
    02:00 +17°C° 0 mm 2 mps 759 mmHg 17%
    03:00 +17°C° 0 mm 2 mps 759 mmHg 17%
    04:00 +17°C° 0 mm 2 mps 759 mmHg 17%
    05:00 +17°C° 0 mm 2 mps 760 mmHg 17%
    06:00 +17°C° 0 mm 2 mps 760 mmHg 18%
    07:00 +18°C° 0 mm 2 mps 761 mmHg 18%
    08:00 +20°C° 0 mm 2 mps 761 mmHg 16%
    09:00 +23°C° 0 mm 2 mps 761 mmHg 15%
    10:00 +26°C° 0 mm 2 mps 761 mmHg 13%
    11:00 +26°C° 0 mm 2 mps 761 mmHg 12%
    12:00 +27°C° 0 mm 2 mps 760 mmHg 12%
    13:00 +28°C° 0 mm 2 mps 760 mmHg 11%
    14:00 +27°C° 0 mm 2 mps 760 mmHg 13%
    15:00 +26°C° 0 mm 2 mps 760 mmHg 16%
    16:00 +25°C° 0 mm 2 mps 760 mmHg 18%
    17:00 +24°C° 0 mm 2 mps 760 mmHg 17%
    18:00 +23°C° 0 mm 2 mps 761 mmHg 17%
    19:00 +21°C° 0 mm 2 mps 761 mmHg 16%
    20:00 +21°C° 0 mm 2 mps 761 mmHg 16%
    21:00 +21°C° 0 mm 2 mps 761 mmHg 16%
    22:00 +21°C° 0 mm 2 mps 761 mmHg 16%
    23:00 +21°C° 0 mm 2 mps 761 mmHg 16%
    Show more